Location: Johnson City
(36.3130°N, 82.3540°W)
Time: 05:12:39
(UTC-05:00)

N. Korean satellite - Pass Details

Date: 08 December 2021
Orbit: 446 x 492 km, 97.3° (Epoch: 16 January)

Event Time Altitude Azimuth Distance (km) Brightness Sun altitude
Rises 05:42:25 0° 11° (N) 2,452 10.1 -20.8°
Reaches altitude 10° 05:44:27 10° 10° (N) 1,576 9.1 -20.4°
Maximum altitude 05:47:49 86° 283° (WNW) 453 6.2 -19.7°
Drops below altitude 10° 05:51:11 10° 194° (SSW) 1,571 9.2 -19.1°
Sets 05:53:12 0° 193° (SSW) 2,443 10.2 -18.7°
